Regional Weather Roundup
Issued by NWS

Home | Current Version | Previous Version | Graphics & Text | Print | Product List | Glossary On
Versions: 1 2 3 4 5 6 7 8 9 10 11 12 13 14 15 16 17 18 19 20 21 22 23 24 25 26 27 28 29 30 31 32 33 34 35 36 37 38 39 40 41 42 43 44 45 46 47 48 49 50
271
ASUS44 KMEG 191900
RWRTN
TENNESSEE HOURLY STATE WEATHER ROUNDUP
NATIONAL WEATHER SERVICE MEMPHIS TN
100 PM CST SUN FEB 19 2017

TNZ002-004-019-021-049-052-054-088>092-192000-
WEST TENNESSEE

CITY           SKY/WX    TMP DP  RH WIND       PRES   REMARKS
MEMPHIS INTL   MOSUNNY   73  53  49 SE6       30.08F
NWS MEMPHIS      N/A     73 N/A N/A MISG        N/A
JACKSON        SUNNY     69  55  60 CALM      30.09F
UNION CITY     MOSUNNY   66  57  72 CALM      30.09F
PARIS          MOSUNNY   66  54  63 VRB6      30.10F
$$

TNZ008-025-027-028-033-062-065-066-192000-
NORTH MIDDLE TENNESSEE

CITY           SKY/WX    TMP DP  RH WIND       PRES   REMARKS
NASHVILLE      PTSUNNY   64  51  62 NE3       30.13R
CLARKSVILLE    SUNNY     66  53  63 CALM      30.10F
SMYRNA         MOSUNNY   64  51  62 CALM      30.13S
CROSSVILLE     SUNNY     61  45  55 VRB3      30.12F
$$

TNZ061-075-076-078-094-096-097-192000-
SOUTH MIDDLE TENNESSEE

CITY           SKY/WX    TMP DP  RH WIND       PRES   REMARKS
TULLAHOMA      MOSUNNY   64  48  55 VRB6      30.11F
WINCHESTER     SUNNY     64  50  59 NE8       30.10F
MCMINNVILLE    SUNNY     64  50  59 W3        30.11F
COLUMBIA       SUNNY     66  57  72 VRB5      30.10S
SHELBYVILLE    MOSUNNY   68  54  60 VRB3      30.12R
$$

TNZ017-018-042-046-047-192000-
NORTHEAST TENNESSEE

CITY           SKY/WX    TMP DP  RH WIND       PRES   REMARKS
TRI CITIES     CLOUDY    55  45  68 W8        30.12S
$$

TNZ012-013-036-069-073-074-192000-
CENTRAL EAST TENNESSEE

CITY           SKY/WX    TMP DP  RH WIND       PRES   REMARKS
KNOXVILLE      PTSUNNY   62  46  55 E3        30.11F
OAK RIDGE      SUNNY     62  46  55 E5        30.12F
GATLINBURG     MOSUNNY   59  45  58 CALM      30.12F
$$

TNZ083-085-099-192000-
SOUTHEAST TENNESSEE

CITY           SKY/WX    TMP DP  RH WIND       PRES   REMARKS
CHATTANOOGA    MOSUNNY   65  47  52 N14       30.10F
$$

SKY/WX REPORTED AS FAIR MEANS FEW OR NO CLOUDS BELOW
12 THOUSAND FEET.





USA.gov is the U.S. government's official web portal to all federal, state and local government web resources and services.